Starlink 32278

operational
NORAD ID: 60356 Int'l Des: 2024-138 Owner: SPXS Country: US Constellation: starlink
LEOCIRCULAR

Starlink 32278について

説明を読み込み中...

リアルタイム位置

3D地球を読み込み中...

次回通過

高度履歴

Altitude vs Time

uPlot chart will show altitude changes over time

軌道要素

1 60356U 24138B 25354.20712267 .00002004 00000-0 79811-4 0 9990
2 60356 53.1595 319.1256 0001453 92.8862 267.2305 15.30190181 78453
Epoch: Dec 20, 2025 • Age: 11 hours

現在のステータス

高度 476.3 km
速度 7.63 km/s
衛星直下点 29.26°N, 10.55°E
打ち上げ日 Aug 4, 2024
運用期間 1.3 years
タイプ internet

技術仕様

分類 Payload
質量 730.00 kg
乾燥質量 700.00 kg
総質量 730.00 kg
長さ 0.30 m
直径 4.10 m
スパン 29.00 m
形状 Box + pan
製造者 SPXS
バスタイプ Starlink V2M
フェーズステータス In Orbit
所有者/国 SPXS/US

大規模コンステレーション

Loading constellations...